Time,TemperatureF,DewpointF,PressureIn,WindDirection,WindDirectionDegrees,WindSpeedMPH,WindSpeedGustMPH,Humidity,HourlyPrecipIn,Conditions,Clouds,dailyrainin,SoftwareType,DateUTC
2013-02-21 09:32:00,20.0,13.0,-100.00,East,90,18.0,24.0,72,0.00,,,-99.99,,2013-02-21 15:32:00,
2013-02-21 09:42:00,20.0,13.0,-100.00,East,90,18.0,24.0,72,0.00,,,-99.99,,2013-02-21 15:42:00,
2013-02-21 09:52:00,20.0,13.0,-100.00,East,90,16.0,24.0,71,0.00,,,-99.99,,2013-02-21 15:52:00,
2013-02-21 10:01:00,20.0,13.0,-100.00,East,90,16.0,24.0,71,0.00,,,-99.99,,2013-02-21 16:01:00,
2013-02-21 10:12:00,20.0,13.0,-100.00,East,95,14.0,24.0,71,0.00,,,-99.99,,2013-02-21 16:12:00,
2013-02-21 10:21:00,21.0,13.0,-100.00,East,95,17.0,22.0,70,0.00,,,-99.99,,2013-02-21 16:21:00,
2013-02-21 10:32:00,21.0,13.0,-100.00,East,90,12.0,19.0,69,0.00,,,-99.99,,2013-02-21 16:32:00,
2013-02-21 10:42:00,21.0,13.0,-100.00,East,90,12.0,19.0,69,0.00,,,-99.99,,2013-02-21 16:42:00,
2013-02-21 10:52:00,22.0,13.0,-100.00,East,100,17.0,22.0,68,0.00,,,-99.99,,2013-02-21 16:52:00,
2013-02-21 11:01:00,22.0,13.0,-100.00,East,100,17.0,22.0,68,0.00,,,-99.99,,2013-02-21 17:01:00,
2013-02-21 11:11:00,22.0,13.0,-100.00,East,95,16.0,24.0,67,0.00,,,-99.99,,2013-02-21 17:11:00,
2013-02-21 11:21:00,22.0,13.0,-100.00,East,95,16.0,22.0,66,0.00,,,-99.99,,2013-02-21 17:21:00,
2013-02-21 11:32:00,23.0,13.0,-100.00,East,95,19.0,24.0,65,0.00,,,-99.99,,2013-02-21 17:32:00,
2013-02-21 11:42:00,23.0,13.0,-100.00,East,95,19.0,24.0,65,0.00,,,-99.99,,2013-02-21 17:42:00,
2013-02-21 11:52:00,24.0,13.0,-100.00,East,80,13.0,23.0,64,0.00,,,-99.99,,2013-02-21 17:52:00,
2013-02-21 12:02:00,24.0,13.0,-100.00,East,80,13.0,23.0,64,0.00,,,-99.99,,2013-02-21 18:02:00,
2013-02-21 12:11:00,23.0,13.0,-100.00,East,90,18.0,26.0,64,0.00,,,-99.99,,2013-02-21 18:11:00,
2013-02-21 12:22:00,24.0,13.0,-100.00,ENE,75,17.0,25.0,64,0.00,,,-99.99,,2013-02-21 18:22:00,
2013-02-21 12:31:00,24.0,13.0,-100.00,East,80,20.0,28.0,64,0.00,,,-99.99,,2013-02-21 18:31:00,
2013-02-21 12:42:00,24.0,13.0,-100.00,East,80,20.0,28.0,64,0.00,,,-99.99,,2013-02-21 18:42:00,
2013-02-21 12:51:00,24.0,14.0,-100.00,East,80,17.0,28.0,64,0.00,,,-99.99,,2013-02-21 18:51:00,
2013-02-21 13:01:00,24.0,14.0,-100.00,East,80,17.0,28.0,64,0.00,,,-99.99,,2013-02-21 19:01:00,
2013-02-21 13:12:00,24.0,14.0,-100.00,ENE,75,19.0,27.0,64,0.00,,,-99.99,,2013-02-21 19:12:00,
2013-02-21 13:21:00,24.0,14.0,-100.00,East,80,19.0,26.0,63,0.00,,,-99.99,,2013-02-21 19:21:00,
2013-02-21 13:31:00,24.0,14.0,-100.00,East,95,21.0,30.0,64,0.00,,,-99.99,,2013-02-21 19:31:00,
2013-02-21 13:41:00,24.0,14.0,-100.00,East,95,21.0,30.0,64,0.00,,,-99.99,,2013-02-21 19:41:00,
2013-02-21 13:51:00,25.0,15.0,-100.00,East,90,19.0,28.0,65,0.00,,,-99.99,,2013-02-21 19:51:00,
2013-02-21 14:01:00,25.0,15.0,-100.00,East,90,19.0,28.0,65,0.00,,,-99.99,,2013-02-21 20:01:00,
2013-02-21 14:11:00,25.0,15.0,-100.00,East,90,17.0,27.0,66,0.00,,,-99.99,,2013-02-21 20:11:00,
2013-02-21 14:21:00,25.0,16.0,-100.00,East,95,21.0,27.0,66,0.00,,,-99.99,,2013-02-21 20:21:00,
2013-02-21 14:32:00,26.0,16.0,-100.00,East,90,19.0,29.0,66,0.00,,,-99.99,,2013-02-21 20:32:00,
2013-02-21 14:41:00,26.0,16.0,-100.00,East,90,19.0,29.0,66,0.00,,,-99.99,,2013-02-21 20:41:00,
2013-02-21 14:52:00,26.0,16.0,-100.00,ENE,75,18.0,30.0,67,0.00,,,-99.99,,2013-02-21 20:52:00,
2013-02-21 15:02:00,26.0,16.0,-100.00,ENE,75,18.0,30.0,67,0.00,,,-99.99,,2013-02-21 21:02:00,
2013-02-21 15:11:00,25.0,16.0,-100.00,ENE,75,21.0,28.0,68,0.00,,,-99.99,,2013-02-21 21:11:00,
2013-02-21 15:21:00,25.0,17.0,-100.00,East,85,21.0,29.0,68,0.00,,,-99.99,,2013-02-21 21:21:00,
2013-02-21 15:31:00,25.0,17.0,-100.00,East,80,23.0,34.0,73,0.01,,,-99.99,,2013-02-21 21:31:00,
2013-02-21 15:42:00,25.0,17.0,-100.00,East,80,23.0,34.0,73,0.01,,,-99.99,,2013-02-21 21:42:00,
2013-02-21 15:51:00,25.0,19.0,-100.00,East,80,21.0,30.0,80,0.00,,,-99.99,,2013-02-21 21:51:00,
2013-02-21 16:01:00,25.0,19.0,-100.00,East,80,21.0,30.0,80,0.00,,,-99.99,,2013-02-21 22:01:00,
2013-02-21 16:11:00,25.0,20.0,-100.00,East,80,20.0,28.0,80,0.01,,,-99.99,,2013-02-21 22:11:00,
2013-02-21 16:21:00,25.0,20.0,-100.00,East,85,21.0,27.0,82,0.04,,,-99.99,,2013-02-21 22:21:00,
2013-02-21 16:31:00,24.0,21.0,-100.00,East,80,21.0,25.0,87,0.01,,,-99.99,,2013-02-21 22:31:00,
2013-02-21 16:41:00,24.0,21.0,-100.00,East,80,21.0,25.0,87,0.01,,,-99.99,,2013-02-21 22:41:00,
2013-02-21 16:52:00,24.0,22.0,-100.00,ENE,70,16.0,23.0,90,0.03,,,-99.99,,2013-02-21 22:52:00,
2013-02-21 17:01:00,24.0,22.0,-100.00,ENE,70,16.0,23.0,90,0.03,,,-99.99,,2013-02-21 23:01:00,
2013-02-21 17:11:00,24.0,22.0,-100.00,ENE,75,14.0,19.0,91,0.01,,,-99.99,,2013-02-21 23:11:00,
2013-02-21 17:21:00,25.0,22.0,-100.00,ENE,70,14.0,22.0,91,0.06,,,-99.99,,2013-02-21 23:21:00,
2013-02-21 17:31:00,25.0,23.0,-100.00,ENE,60,12.0,26.0,92,0.08,,,-99.99,,2013-02-21 23:31:00,
2013-02-21 17:41:00,25.0,23.0,-100.00,ENE,60,12.0,26.0,92,0.08,,,-99.99,,2013-02-21 23:41:00,
2013-02-21 17:52:00,24.0,23.0,-100.00,ENE,60,16.0,24.0,93,0.03,,,-99.99,,2013-02-21 23:52:00,
2013-02-21 18:01:00,24.0,23.0,-100.00,ENE,60,16.0,24.0,93,0.03,,,-99.99,,2013-02-22 00:01:00,
2013-02-21 18:11:00,24.0,23.0,-100.00,ENE,60,14.0,26.0,94,0.06,,,-99.99,,2013-02-22 00:11:00,
2013-02-21 18:21:00,24.0,23.0,-100.00,ENE,70,20.0,25.0,94,0.04,,,-99.99,,2013-02-22 00:21:00,
2013-02-21 18:32:00,24.0,23.0,-100.00,NE,55,13.0,21.0,95,0.01,,,-99.99,,2013-02-22 00:32:00,
2013-02-21 18:41:00,24.0,23.0,-100.00,NE,55,13.0,21.0,95,0.01,,,-99.99,,2013-02-22 00:41:00,
2013-02-21 18:51:00,24.0,23.0,-100.00,ENE,65,16.0,23.0,95,0.00,,,-99.99,,2013-02-22 00:51:00,
2013-02-21 19:01:00,24.0,23.0,-100.00,ENE,65,16.0,23.0,95,0.00,,,-99.99,,2013-02-22 01:01:00,
2013-02-21 19:11:00,24.0,23.0,-100.00,ENE,60,18.0,27.0,95,0.00,,,-99.99,,2013-02-22 01:11:00,
2013-02-21 19:21:00,24.0,23.0,-100.00,NE,55,14.0,22.0,95,0.00,,,-99.99,,2013-02-22 01:21:00,
2013-02-21 19:32:00,24.0,23.0,-100.00,ENE,60,15.0,26.0,95,0.00,,,-99.99,,2013-02-22 01:32:00,
2013-02-21 19:42:00,24.0,23.0,-100.00,ENE,60,15.0,26.0,95,0.00,,,-99.99,,2013-02-22 01:42:00,
2013-02-21 19:51:00,24.0,23.0,-100.00,ENE,65,21.0,29.0,95,0.00,,,-99.99,,2013-02-22 01:51:00,
2013-02-21 20:02:00,24.0,23.0,-100.00,ENE,65,21.0,29.0,95,0.00,,,-99.99,,2013-02-22 02:02:00,
2013-02-21 20:11:00,24.0,23.0,-100.00,NE,55,16.0,25.0,95,0.00,,,-99.99,,2013-02-22 02:11:00,
2013-02-21 20:21:00,24.0,23.0,-100.00,ENE,65,18.0,26.0,95,0.00,,,-99.99,,2013-02-22 02:21:00,
2013-02-21 20:31:00,24.0,23.0,-100.00,ENE,65,15.0,21.0,95,0.00,,,-99.99,,2013-02-22 02:31:00,
2013-02-21 20:42:00,24.0,23.0,-100.00,ENE,65,15.0,21.0,95,0.00,,,-99.99,,2013-02-22 02:42:00,
2013-02-21 20:52:00,24.0,23.0,-100.00,NE,55,12.0,18.0,95,0.01,,,-99.99,,2013-02-22 02:52:00,
2013-02-21 21:01:00,24.0,23.0,-100.00,NE,55,12.0,18.0,95,0.01,,,-99.99,,2013-02-22 03:01:00,
2013-02-21 21:11:00,24.0,23.0,-100.00,NE,55,12.0,19.0,95,0.01,,,-99.99,,2013-02-22 03:11:00,
2013-02-21 21:21:00,24.0,23.0,-100.00,NE,45,9.0,16.0,95,0.01,,,-99.99,,2013-02-22 03:21:00,
2013-02-21 21:32:00,23.0,22.0,-100.00,NE,40,9.0,13.0,96,0.03,,,-99.99,,2013-02-22 03:32:00,
2013-02-21 21:41:00,23.0,22.0,-100.00,NE,40,9.0,13.0,96,0.03,,,-99.99,,2013-02-22 03:41:00,
2013-02-21 21:51:00,23.0,22.0,-100.00,NE,50,10.0,15.0,96,0.00,,,-99.99,,2013-02-22 03:51:00,
2013-02-21 22:01:00,23.0,22.0,-100.00,NE,50,10.0,15.0,96,0.00,,,-99.99,,2013-02-22 04:01:00,
2013-02-21 22:11:00,24.0,23.0,-100.00,NE,55,11.0,16.0,96,0.00,,,-99.99,,2013-02-22 04:11:00,
2013-02-21 22:21:00,24.0,23.0,-100.00,ENE,65,12.0,16.0,96,0.04,,,-99.99,,2013-02-22 04:21:00,
2013-02-21 22:32:00,24.0,23.0,-100.00,NE,50,10.0,16.0,96,0.08,,,-99.99,,2013-02-22 04:32:00,
2013-02-21 22:42:00,24.0,23.0,-100.00,NE,50,10.0,16.0,96,0.08,,,-99.99,,2013-02-22 04:42:00,
2013-02-21 22:51:00,24.0,23.0,-100.00,NE,55,12.0,19.0,97,0.01,,,-99.99,,2013-02-22 04:51:00,
2013-02-21 23:01:00,24.0,23.0,-100.00,NE,55,12.0,19.0,97,0.01,,,-99.99,,2013-02-22 05:01:00,
2013-02-21 23:12:00,24.0,23.0,-100.00,ENE,60,12.0,17.0,97,0.03,,,-99.99,,2013-02-22 05:12:00,
2013-02-21 23:22:00,24.0,23.0,-100.00,NE,45,12.0,18.0,97,0.13,,,-99.99,,2013-02-22 05:22:00,
2013-02-21 23:32:00,24.0,23.0,-100.00,NE,55,12.0,17.0,97,0.03,,,-99.99,,2013-02-22 05:32:00,
2013-02-21 23:41:00,24.0,23.0,-100.00,NE,55,12.0,17.0,97,0.03,,,-99.99,,2013-02-22 05:41:00,
2013-02-21 23:52:00,24.0,23.0,-100.00,NE,45,12.0,17.0,97,0.08,,,-99.99,,2013-02-22 05:52:00,